STARLINK-5628, 55466

Orbit data source: Space-Track

STARLINK-5628, 55466 is a payload satellite owned by SpaceX/Seattle (US) in LEO that was launched on Thu, 02 Feb 2023 UTC via an FALCON 9 launch vehicle from the Air Force Eastern Test Range (AFETR). Payload-class satellites include a variety of spacecraft equipped with specific instruments for various scientific and technological missions. These include communications satellites like Starlink; space stations such as the ISS; scientific satellites like the Hubble; Earth observation satellites from companies like Planet Labs, Umbra, and HawkEye 360; GPS; miniature CubeSats for education and research; and military/defense satellites.

Loading next visibility...
Identifier
55466, 2023-015T
Orbit
LEO
Country
Flag of USUS
Related business
Manufacturer
SpaceX/Seattle
Mission
Operational Commercial Communications
Bus & Motor
STARLINK, Unknown motor
Mass
305 kg wet, ~290 kg dry
Launch date (UTC)
2023-02-02 (3 years ago)
Launch vehicle
FALCON 9
Launch site
Air Force Eastern Test Range (AFETR)
Object type
Payload
Rocket body
Debris
Shape & HBR
Box + 1 Pan, 10.1 m
Radar Cross Section
13.562 m², Large (>1 m²)

Expand to show TLE details & history
Last TLE update: 17 hours ago

TLE from 17 hours ago
0 STARLINK-5628
1 55466U 23015T   26035.29135049  .00000752  00000-0  70751-4 0  9994
2 55466  43.0038 147.1537 0001073 295.4472  64.6259 15.02530937165737
Epoch: 2026-02-04T06:59Z
TLE epoch observation values (Epoch: 2026-02-04T06:59:32.682Z)
Latitude
-0.00003°
Longitude
-92.19254°
Altitude
558.555 km
Speed
7.584 km/s
True Right ascension
09h 48m 36s
True Declination
0° 00' 00"
Sunlit
Object was in full shadow at epoch
Visualization orbit readout
Latitude
Unknown
Longitude
Unknown
Altitude
Unknown
Speed
Unknown
Apparent Right ascension
Unknown
Apparent Declination
Unknown
Sunlit
N/A
Visualization observer readout
Local Sidereal Time
01:41:07
Azimuth
Unknown
Elevation
Unknown
Doppler factor
Unknown
Orbital elements
Apogee altitude
561.763 km
Perigee altitude
560.274 km
Semi-major axis
6,939.155 km
Eccentricity
0.00011
Inclination
43.0038°
RAAN
147.1537°
Arg. of periapsis
295.4472°
True anomaly
64.63701°
Mean anomaly
64.6259°
Eccentric anomaly
64.63146°
Mean motion
3.75477 °/min
Orbital period
95.88 mins
BSTAR
0.000070751
Loading maneuver chart data...
Computing Atmospheric mass density...
Loading historical data...
Loading historical data...
Loading historical data...
Loading historical data...
Loading historical data...
Loading historical data...
Loading historical data...

Documentation

Showing up to 5 results
|